Tracking 28081 objects as of 27-Sep-2023
HD Live streaming from Space Station
objects crossing your sky now

STARLINK-4205

Track STARLINK-4205 now!
10-day predictions
STARLINK-4205 is classified as:


NORAD ID: 53174
Int'l Code: 2022-083AU
Perigee: 546.0 km
Apogee: 547.9 km
Inclination: 53.2 °
Period: 95.4 minutes
Semi major axis: 6917 km
RCS: Unknown
Launch date: July 17, 2022
Source: United States (US)
Launch site: AIR FORCE EASTERN TEST RANGE (AFETR)
Your satellite tracking list
Your tracking list is empty




NASA's NSSDC Master Catalog

Two Line Element Set (TLE):
1 53174U 22083AU  23270.05465204 -.00002900  00000-0 -16425-3 0  9999
2 53174  53.2157 230.2910 0001370 108.8157 251.2984 15.08832732 66791
Source of the keplerian elements: AFSPC